HORIZONS 3E (43633 NORAD) Tracking and Keplerian Element Data

This shows tracking and keplerian element data for the satellite.

Feedback or suggestion? Click here.




ElementValue
Catalog43633
NameHORIZONS 3E
Epoch Orbit304
Epoch Day201.14729824
Epoch Year2019
RAAN271.8769
Inclination0.0007
Eccentricity4.86E-05
Argument of Perigee3.2603
Mean Anonmoly244.5067
Mean Motion1.00270528
Decay Rate-3.8E-07
L11 43633U 18074B 19201.14729824 -.00000038 00000-0 00000+0 0 9990
L22 43633 0.0007 271.8769 0000486 3.2603 244.5067 1.00270528 3040

Live tracking and technical data element details for HORIZONS 3E (NORAD 43633). HORIZONS 3E can be tracked NOW for your location showing map with azimuth and elevation plus other details from your city location.

Track the satellite on the map from your city or location and see movement details for azimuth, elevation, latitude, longitude, range, height, and movement on the map or in text.







IsCatalogInMostPopularTable: catalog: 43633, numindb: 181
Update: records affected: 1



GetName: 43633 HORIZONS 3E

Hit Count: updated at: Sat, 20 Jul 2019 23:07:03 GMT